Volver al catálogo

YAOGAN-35 04B

ActivoMilitarVLEO
NORAD 53524·PAYLOAD·🇨🇳 China

Lanzado Aug 19, 2022 desde Xichang Satellite Launch Center

Loading…

Próximos Pases (próximas 24 horas)

TLE

ActualizadoSource: Space-Track

Época: Sep 14, 2026, 04:36 UTC

1 53524U 22100C   26257.19201104  .00011905  00000-0  31285-3 0  9992
2 53524  35.0006 175.3804 0003564 357.7629   2.3074 15.37762501118935

Sigue YAOGAN-35 04B en tiempo real con AllMySat

Download on the App Store